This is the latest recevied weather packets stored in our database for station/object YM2KRB-11. If no packets are shown the sender has not sent any weather packets the latest 10 day(s).
| Time | Temp. | Humidity | Pressure | Rain* | Wind** | Luminosity | Snow |
|---|---|---|---|---|---|---|---|
| 1777913001 | 10° C | 57% | 936.4 hPa | - | - | - | - |
| 1777911800 | 10° C | 57% | 936.4 hPa | - | - | - | - |
| 1777910599 | 10.56° C | 56% | 936.1 hPa | - | - | - | - |
| 1777909399 | 11.67° C | 55% | 936 hPa | - | - | - | - |
| 1777908198 | 11.67° C | 53% | 935.8 hPa | - | - | - | - |
| 1777906997 | 12.78° C | 52% | 935.7 hPa | - | - | - | - |
| 1777905796 | 12.22° C | 53% | 935.6 hPa | - | - | - | - |
| 1777904596 | 12.78° C | 52% | 935.4 hPa | - | - | - | - |
| 1777903395 | 12.22° C | 53% | 935.4 hPa | - | - | - | - |
| 1777902194 | 12.22° C | 53% | 935.3 hPa | - | - | - | - |
| 1777900993 | 12.78° C | 53% | 935.2 hPa | - | - | - | - |
| 1777899792 | 13.33° C | 52% | 935.1 hPa | - | - | - | - |
| 1777898592 | 13.33° C | 56% | 935 hPa | - | - | - | - |
| 1777897391 | 13.33° C | 54% | 935 hPa | - | - | - | - |
| 1777896190 | 14.44° C | 50% | 934.9 hPa | - | - | - | - |
| 1777894989 | 13.33° C | 49% | 934.7 hPa | - | - | - | - |
| 1777893788 | 13.33° C | 47% | 934.5 hPa | - | - | - | - |
| 1777892588 | 12.78° C | 47% | 934.3 hPa | - | - | - | - |
| 1777891387 | 14.44° C | 45% | 934.2 hPa | - | - | - | - |
| 1777890186 | 16.11° C | 42% | 933.9 hPa | - | - | - | - |
| 1777888985 | 18.33° C | 37% | 933.8 hPa | - | - | - | - |
| 1777887785 | 22.22° C | 33% | 933.7 hPa | - | - | - | - |
| 1777886583 | 22.22° C | 32% | 933.8 hPa | - | - | - | - |
| 1777885383 | 19.44° C | 37% | 933.7 hPa | - | - | - | - |
| 1777884182 | 17.78° C | 40% | 933.7 hPa | - | - | - | - |
* Rain since midnight (hover to see other rain measurements)
** Current wind speed in m/s (hover to see current wind gust speed)